Flag for U.S.A. Weather past 2 weeks in Pueblo, Colorado, U.S.A.

Now
39 °F

Clear.


Feels Like: 28 °F
Forecast: 23 / 39 °F
Wind: 26 mph from Northwest

Location: Pueblo Memorial Airport

Current Time: Mar 3, 2015 at 4:28:12 AM

Latest Report: Mar 3, 2015 at 3:53 AM


Visibility: 10 mi

Pressure: 29.64 "Hg

Humidity: 48%

Dew point: 21 °F

Location of PuebloLocation

Historic Weather in Pueblo — Graph

°F

Pueblo temperature yesterday

Maximum temperature yesterday: 36 °F (at 3:53 PM)
Minimum temperature yesterday: 24 °F (at 4:53 AM)
Average temperature yesterday: 28 °F

Past Weeks' High & Low Weather Summary

 TemperatureHumidityPressure
High70 °F (Feb 19, 1:53 PM)100% (Feb 16, 2:53 AM)30.67 "Hg (Feb 16, 2:53 AM)
Low1 °F (Feb 28, 6:53 AM)11% (Feb 19, 12:53 PM)29.53 "Hg (Feb 20, 1:53 PM)
Average25 °F76%30.16 "Hg
* Reported Feb 16 2:53 AM — Mar 3 2:53 AM, Pueblo, Weather by CustomWeather, © 2015

Note: Actual official high and low records may vary slightly from our data, if they occured in-between our weather recording intervals... More about our weather records

Advertising

Pueblo weather history for previous 24 hours

 ConditionsComfort  
Time TempWeatherWind HumidityBarometerVisibility
2:53 AM
Tue, Mar 3
40 °FClear.32 mph45%29.60 "Hg10 mi
1:53 AM40 °FClear.22 mph68%29.62 "Hg10 mi
12:53 AM31 °FIce fog.15 mph89%29.66 "Hg6 mi
11:53 PM
Mon, Mar 2
29 °FIce fog.3 mph89%29.69 "Hg5 mi
10:53 PM29 °FIce fog.No wind96%29.68 "Hg5 mi
9:53 PM28 °FIce fog.5 mph96%29.69 "Hg6 mi
8:53 PM29 °FIce fog.No wind96%29.69 "Hg6 mi
7:53 PM31 °FClear.3 mph92%29.72 "Hg8 mi
6:53 PM33 °FClear.No wind85%29.73 "Hg9 mi
5:53 PM35 °FClear.3 mph82%29.73 "Hg10 mi
3:53 PM36 °FSunny.No wind79%29.80 "Hg9 mi
2:53 PM35 °FChilly.N/A78%29.85 "HgN/A
1:53 PM33 °FPartly sunny.6 mph82%29.90 "Hg9 mi
12:53 PM31 °FOvercast.5 mph82%29.95 "Hg7 mi
11:53 AM28 °FIce fog.5 mph89%30.01 "Hg5 mi
10:53 AM27 °FIce fog.3 mph85%30.06 "Hg5 mi
9:53 AM26 °FIce fog.No wind88%30.10 "Hg5 mi
8:53 AM25 °FIce fog.7 mph88%30.14 "Hg6 mi
7:53 AM25 °FLow clouds.5 mph88%30.15 "Hg7 mi
6:53 AM24 °FLow clouds.No wind91%30.17 "Hg8 mi
5:53 AM24 °FMostly cloudy.No wind91%30.20 "Hg8 mi
4:53 AM24 °FMostly cloudy.5 mph91%30.22 "Hg7 mi
Weather by CustomWeather, © 2015

See weather overviewHow to use our weather pages